OpenBCM V1.08-5-g2f4a (Linux)

Packet Radio Mailbox

IZ3LSV

[San Dona' di P. JN]

 Login: GUEST





  
WG3K   > KEPS     08.12.24 04:38l 387 Lines 18569 Bytes #24 (0) @ AMSAT
BID : ORB24309.1
Read: GUEST
Subj: 2Line Orbital Elements 24309.AMSAT
Path: IZ3LSV<DB0ERF<DK0WUE<DK0WUE<VK5RSV<K7EK<KA1VSC<WG3K
Sent: 241208/0229Z 10658@WG3K.#SMD.MD.USA.NOAM LinBPQ6.0.24


QST de W1STR

AMSAT Orbital Elements for Amateur Satellites in TLE Format
From Orbital Analysis Office
New England Sci-Tech STEM Education Center
Natick, MA November 04, 2024
To all radio amateurs


These element sets describe the orbits of various satellites 
in use by the amateur radio community. For details see:
www.amsat.org/keplerian-elements-formats/

A daily update of element sets is available at:
www.amsat.org/tle/daily-bulletin.txt
or without bulletin text:
www.amsat.org/tle/dailytle.txt


AO-07
1 07530U 74089B   24308.56924476 -.00000018  00000-0  17515-3 0  9995
2 07530 101.9887 304.5733 0012136 177.2414 301.7233 12.53682004286506
UO-11
1 14781U 84021B   24308.49615068  .00007363  00000-0  80923-3 0  9996
2 14781  97.7246 273.8171 0007627 350.0848  10.0217 14.87897539169195
AO-27
1 22825U 93061C   24308.37311145  .00000815  00000-0  32907-3 0  9998
2 22825  98.7707   2.4872 0008996  37.8804 322.3009 14.30640731622518
FO-29
1 24278U 96046B   24308.49251655  .00000038  00000-0  73958-4 0  9999
2 24278  98.5839 224.8974 0349890 187.2830 172.3150 13.53219909393270
NOAA-15
1 25338U 98030A   24308.87070959  .00000990  00000-0  42627-3 0  9995
2 25338  98.5578 333.0279 0009161 277.2149  82.7990 14.26779795377358
GO-32
1 25397U 98043D   24308.49060305  .00000720  00000-0  33263-3 0  9993
2 25397  98.9422 277.4294 0002260 103.5279 256.6151 14.24176578367247
ISS
1 25544U 98067A   24308.80219352  .00040806  00000-0  69068-3 0  9997
2 25544  51.6388 343.7865 0008969 132.8605 227.3139 15.51108030480201
NO-44
1 26931U 01043C   24308.46801925  .00001191  00000-0  47899-3 0  9993
2 26931  67.0515 331.6718 0007471 263.4556  96.5695 14.31473396205880
SO-50
1 27607U 02058C   24308.84918999  .00005972  00000-0  79548-3 0  9990
2 27607  64.5533 151.9245 0030177  39.1433 321.1846 14.80182692177199
CO-55
1 27844U 03031E   24308.55245750  .00001979  00000-0  88705-3 0  9999
2 27844  98.6785 313.6859 0010842  99.2038 261.0368 14.23605038107614
CO-57
1 27848U 03031J   24308.54340750  .00001691  00000-0  76965-3 0  9994
2 27848  98.6822 313.8382 0010606 114.0328 246.1961 14.22997770107359
RS-22
1 27939U 03042A   24308.78827912  .00006064  00000-0  99385-3 0  9993
2 27939  98.3067 107.4467 0011399 344.5441 128.0954 14.71067524128795
NOAA-18
1 28654U 05018A   24308.81698822  .00000988  00000-0  54873-3 0  9995
2 28654  98.8642  24.5620 0014547  31.2287 328.9746 14.13403464  2985
CO-58
1 28895U 05043F   24308.32457675  .00010014  00000-0  17053-2 0  9994
2 28895  98.2216  84.6390 0014303 278.3660  81.5923 14.69180376 14878
CO-65
1 32785U 08021C   24308.88157650  .00017507  00000-0  14095-2 0  9994
2 32785  97.7742 273.4535 0009116 218.7419 141.3151 14.99980991896469
AAUSAT2
1 32788U 08021F   24308.48118873  .00101032  00000-0  33315-2 0  9990
2 32788  97.6038 290.3324 0008091  68.2538 291.9563 15.31003659899527
CO-66
1 32791U 08021J   24308.45016329  .00036745  00000-0  22903-2 0  9993
2 32791  97.7072 279.4348 0004747 158.5126 201.6303 15.09435476897488
RS-30
1 32953U 08025A   24308.78550548  .00000056  00000-0  32847-3 0  9994
2 32953  82.5068   2.6580 0020217 157.9730 202.2223 12.43152119746478
PRISM
1 33493U 09002B   24308.68411628  .00095436  00000-0  28815-2 0  9999
2 33493  98.1829   9.4504 0008996 125.4913 234.7167 15.33843818860312
NOAA-19
1 33591U 09005A   24308.85942296  .00000919  00000-0  51515-3 0  9996
2 33591  99.0300   6.0298 0012869 257.3722 102.6011 14.13184219811356
SRMSAT
1 37841U 11058D   24308.54982420  .00001207  00000-0  51423-3 0  9997
2 37841  19.9731  33.7843 0011674 186.2348 201.4279 14.11268208674278
RS-40
1 38735U 12041C   24308.87072142  .00000045  00000-0  25542-3 0  9992
2 38735  82.4739  82.7834 0016610 273.9991  85.9189 12.42619699556619
ZACUBE-1
1 39417U 13066B   24308.81966877  .00019235  00000-0  18399-2 0  9991
2 39417  97.7528 262.0307 0049971  59.3007 301.3122 14.92303177592384
Delfi-N3xt
1 39428U 13066N   24308.75519507  .00028463  00000-0  32834-2 0  9993
2 39428  97.8341 223.7061 0094598 356.5387   3.5160 14.82374049586919
GOMX-1
1 39430U 13066Q   24308.87681396  .00009264  00000-0  14867-2 0  9999
2 39430  97.7076 174.7711 0136637 167.5239 192.9406 14.65752486583492
LO-74
1 39440U 13066AA  24308.56725279  .00014523  00000-0  15948-2 0  9990
2 39440  97.8258 249.5321 0066432 176.0111 184.1648 14.86144089589015
AO-73
1 39444U 13066AE  24308.87565319  .00029195  00000-0  25329-2 0  9990
2 39444  97.7368 265.6502 0046201  37.8184 322.6268 14.96170329591552
DTUSAT-2
1 40030U 14033W   24308.43182196  .00026692  00000-0  20126-2 0  9997
2 40030  98.0293 265.0309 0012221  76.5031 283.7554 15.02367299563579
EO-80
1 40032U 14033Y   24308.39663143  .00026405  00000-0  19888-2 0  9995
2 40032  98.0180 264.9434 0011028  32.1104 328.0790 15.02421395563546
XW-2C
1 40906U 15049H   24308.80047941  .00132997  00000-0  15833-2 0  9991
2 40906  97.4632 330.6516 0007265 136.2693 223.9140 15.60639311506092
XW-2D
1 40907U 15049J   24308.79601304  .00708637  21332-3  19014-2 0  9998
2 40907  97.4435 336.0279 0004706 139.3212 220.8416 15.94430360506517
LILACSAT-2
1 40908U 15049K   24308.77594719  .00025862  00000-0  85936-3 0  9993
2 40908  97.5213 318.9115 0009935 208.2080 151.8623 15.31132905504818
XW-2B
1 40911U 15049N   24308.84262511  .00546029  11433-3  19680-2 0  9997
2 40911  97.4446 335.7663 0004863 139.1084 221.0553 15.88643431506362
IO-86
1 40931U 15052B   24270.29994034  .00002074  00000-0  19195-3 0  9996
2 40931   5.9998 350.0993 0012711  76.7416 283.4129 14.78150863486449
ChubuSat-2
1 41338U 16012B   24308.06923332  .00020611  00000-0  11835-2 0  9994
2 41338  30.9998 215.1673 0010251 196.9014 163.1283 15.11337856478602
ChubuSat-3
1 41339U 16012C   24308.80560249  .00014999  00000-0  88213-3 0  9998
2 41339  31.0057 209.9513 0010471 206.7896 153.2203 15.10440507478684
Horyu-4
1 41340U 16012D   24308.81228017  .00039928  00000-0  16214-2 0  9995
2 41340  30.9986 141.6005 0009178 325.7582  34.2468 15.23357600479406
Lapan A3
1 41603U 16040E   24308.77452156  .00010346  00000-0  39059-3 0  9992
2 41603  97.1403 316.3255 0010628 335.0342  25.0382 15.27143776464515
Pratham
1 41783U 16059A   24308.58275720  .00004172  00000-0  77153-3 0  9997
2 41783  97.8314 321.4016 0030840 299.6644  60.1490 14.65577737432954
CAS-2T
1 41847U 16066G   24308.73944959  .00006624  00000-0  95446-3 0  9999
2 41847  98.4466  18.9893 0351355 116.7332 247.0268 14.42295403419609
CAS-4B
1 42759U 17034B   24308.82390794  .00055975  00000-0  14699-2 0  9993
2 42759  43.0121 152.7322 0014460 225.0004 134.9680 15.37720169408824
CAS-4A
1 42761U 17034D   24308.87640042  .00065144  00000-0  16956-2 0  9992
2 42761  43.0157 150.6442 0014975 233.6766 126.2707 15.37925312408840
D-SAT
1 42794U 17036AF  24308.47286885  .00028493  00000-0  18007-2 0  9992
2 42794  97.4932 285.5988 0105048  35.6979 325.1212 15.04453159401631
TechnoSat
1 42829U 17042E   24308.49997820  .00014337  00000-0  11921-2 0  9998
2 42829  97.3870 122.0025 0010770 331.2130  28.8498 14.98760848398027
AO-91
1 43017U 17073E   24308.57353386  .00023255  00000-0  13154-2 0  9993
2 43017  97.5500 179.3494 0196412 185.7753 174.1206 14.98095886376497
S-Net D
1 43186U 18014G   24308.73239468  .00017993  00000-0  11841-2 0  9991
2 43186  97.5768 208.2468 0007924 248.8529 111.1853 15.07580265369508
S-Net B
1 43187U 18014H   24308.46999908  .00019953  00000-0  13129-2 0  9993
2 43187  97.5769 207.9482 0008730 244.8015 115.2308 15.07558799369466
S-Net A
1 43188U 18014J   24308.46788979  .00019790  00000-0  13017-2 0  9993
2 43188  97.5778 208.0709 0008577 246.1508 113.8821 15.07574003369462
S-Net C
1 43189U 18014K   24308.47200953  .00020133  00000-0  13241-2 0  9998
2 43189  97.5792 208.0503 0010457 237.4713 122.5505 15.07559769368010
Ten-Koh
1 43677U 18084G   24308.45106217  .00012649  00000-0  10735-2 0  9991
2 43677  98.0778 106.4068 0012279 274.7227  85.2592 14.98006207327555
PO-101
1 43678U 18084H   24308.81678103  .00007765  00000-0  68822-3 0  9994
2 43678  98.0872 111.1518 0007378 293.8947  66.1500 14.96500104327795
QO-100
1 43700U 18090A   24308.78806590  .00000165  00000-0  00000+0 0  9993
2 43700   0.0157 277.6635 0001327 334.7403 100.6472  1.00270772 22002
MinXSS-2
1 43758U 18099A   24308.12114789  .00047469  00000-0  25213-2 0  9999
2 43758  97.5355   8.7226 0014490 195.6799 164.3986 15.15053779323774
AO-95
1 43770U 18099N   24308.67977279  .00025125  00000-0  15316-2 0  9992
2 43770  97.5265   3.7880 0011202 242.5666 117.4425 15.10291199323583
RANGE-B
1 43772U 18099Q   24308.15922354  .00053808  00000-0  27060-2 0  9999
2 43772  97.5062   7.4527 0005233 139.9289 220.2331 15.17024474323739
RANGE-A
1 43773U 18099R   24307.99688779  .00019321  00000-0  13550-2 0  9992
2 43773  97.4834 356.8648 0011285 213.6851 146.3659 15.05170885323297
MOVE-II
1 43780U 18099Y   24308.45518905  .00090031  00000-0  32311-2 0  9998
2 43780  97.5010  11.0270 0004797 202.5017 157.6012 15.28311497324092
SNUSat 2
1 43782U 18099AA  24308.13290622  .00026844  00000-0  17065-2 0  9998
2 43782  97.4952   1.6012 0013544 181.3289 178.7906 15.08717283323492
SnugLite
1 43784U 18099AC  24308.08974864  .00032748  00000-0  19831-2 0  9994
2 43784  97.4771   0.8575 0003865 173.9408 186.1869 15.10517615323573
ITASat 1
1 43786U 18099AE  24308.61291747  .00019559  00000-0  12766-2 0  9992
2 43786  97.4918   2.1024 0014739 232.9998 126.9882 15.07802030323553
EAGLET 1
1 43790U 18099AJ  24308.42802178  .00017957  00000-0  12499-2 0  9995
2 43790  97.5114   2.3640 0012301 210.9993 149.0510 15.05458758323205
